Погода в Новом Ропске

Россия / Брянская область     52°17′54″N   32°18′44″E
темп.,
°C
ветер,
м/с
пор.,
м/с
влажн.,
%
обл.,
%
осадки,
мм/ч
давл.,
гПа
погр.,
м
15 мая, сб
сб1500:00+12ю229212 0.1 100719
03:00+11ю35945 0.1 100769
06:00+11ююз34956 0.1 100790
09:00+15ююз468273 0.1 1008439
12:00+18ююз566520 0.3 10081280
15:00+18юз676725 2.7 10081424
18:00+18юз467325 0.9 10091042
21:00+13ююз479019 1.1 1010110
16 мая, вс
вс1600:00+11ююз349328 0.0 101160
03:00+10ююз34955 0.0 101254
06:00+10юз24955 0.0 101284
09:00+15юз34780 0.0 1013468
12:00+19ююз336227 0.0 10131283
15:00+21ю235567 0.1 10121698
18:00+20ю3462100 0.0 1012256
21:00+15ююв2280100 0.0 101214
17 мая, пн
пн1700:00+13в338760 0.0 101229
03:00+13всв358884 0.0 101169
06:00+13в4118993 0.0 1010248
09:00+17св5881100 0.0 1008354
12:00+21в566999 0.0 1006866
15:00+24юв5757100 0.0 10031261
18:00+23ююв466988 0.0 1003659
21:00+16зсз239151 0.0 100358
18 мая, вт
вт1800:00+14св359898 0.1 100299
03:00+14ююв239850 1.9 100160
06:00+16юв61097100 0.1 1000589
09:00+15юв6991100 0.1 1000617
12:00+15ююв4897100 2.0 1000508
15:00+16юз578625 3.3 1002740
18:00+17ююз3584100 1.0 1002295
21:00+14зюз3493100 2.4 1002107
19 мая, ср
ср1900:00+12з3697100 0.1 1002154
03:00+11зсз4898100 0.1 1002287
06:00+11зсз5996100 0.7 1003473
09:00+12зсз71193100 1.2 1003719
12:00+12з71085100 0.6 10051023
15:00+14з71170100 0.8 10061373
18:00+15з5868100 0.2 10071341
21:00+10зюз4109121 0.7 1010242